TimeMDT,TemperatureF,Dew PointF,Humidity,Sea Level PressureIn,VisibilityMPH,Wind Direction,Wind SpeedMPH,Gust SpeedMPH,PrecipitationIn,Events,Conditions,WindDirDegrees,DateUTC
12:50 AM,44.6,39.2,81,30.12,10.0,Calm,Calm,-,N/A,,Clear,0,2013-06-18 06:50:00
1:10 AM,42.8,37.4,81,30.11,10.0,Calm,Calm,-,N/A,,Clear,0,2013-06-18 07:10:00
1:30 AM,41.0,37.4,87,30.12,10.0,Calm,Calm,-,N/A,,Clear,0,2013-06-18 07:30:00
1:50 AM,41.0,37.4,87,30.12,10.0,Calm,Calm,-,N/A,,Clear,0,2013-06-18 07:50:00
2:10 AM,39.2,35.6,87,30.12,10.0,Calm,Calm,-,N/A,,Clear,0,2013-06-18 08:10:00
2:30 AM,39.2,35.6,87,30.12,10.0,Calm,Calm,-,N/A,,Clear,0,2013-06-18 08:30:00
2:50 AM,39.2,33.8,81,30.12,10.0,Calm,Calm,-,N/A,,Clear,0,2013-06-18 08:50:00
3:10 AM,37.4,32.0,81,30.11,10.0,SSW,3.5,-,N/A,,Clear,200,2013-06-18 09:10:00
3:30 AM,37.4,32.0,81,30.11,10.0,Calm,Calm,-,N/A,,Clear,0,2013-06-18 09:30:00
3:50 AM,35.6,32.0,87,30.11,10.0,Calm,Calm,-,N/A,,Clear,0,2013-06-18 09:50:00
4:10 AM,33.8,30.2,87,30.11,10.0,Calm,Calm,-,N/A,,Clear,0,2013-06-18 10:10:00
4:30 AM,33.8,28.4,81,30.11,10.0,Calm,Calm,-,N/A,,Clear,0,2013-06-18 10:30:00
4:50 AM,32.0,28.4,87,30.11,10.0,Calm,Calm,-,N/A,,Clear,0,2013-06-18 10:50:00
5:10 AM,32.0,28.4,87,30.12,10.0,Calm,Calm,-,N/A,,Clear,0,2013-06-18 11:10:00
5:30 AM,32.0,28.4,87,30.12,10.0,Calm,Calm,-,N/A,,Clear,0,2013-06-18 11:30:00
5:50 AM,32.0,26.6,80,30.12,10.0,Calm,Calm,-,N/A,,Clear,0,2013-06-18 11:50:00
6:10 AM,32.0,28.4,87,30.12,10.0,Calm,Calm,-,N/A,,Clear,0,2013-06-18 12:10:00
6:30 AM,35.6,30.2,81,30.12,10.0,Calm,Calm,-,N/A,,Clear,0,2013-06-18 12:30:00
6:50 AM,39.2,33.8,81,30.12,10.0,Calm,Calm,-,N/A,,Clear,0,2013-06-18 12:50:00
7:10 AM,42.8,37.4,81,30.12,10.0,Calm,Calm,-,N/A,,Clear,0,2013-06-18 13:10:00
7:30 AM,46.4,41.0,81,30.12,10.0,Calm,Calm,-,N/A,,Clear,0,2013-06-18 13:30:00
7:50 AM,46.4,41.0,81,30.12,10.0,Calm,Calm,-,N/A,,Clear,0,2013-06-18 13:50:00
8:10 AM,50.0,44.6,82,30.12,10.0,Calm,Calm,-,N/A,,Clear,0,2013-06-18 14:10:00
8:30 AM,51.8,48.2,88,30.11,10.0,Calm,Calm,-,N/A,,Clear,0,2013-06-18 14:30:00
8:50 AM,55.4,50.0,82,30.11,10.0,Calm,Calm,-,N/A,,Clear,0,2013-06-18 14:50:00
9:10 AM,57.2,53.6,88,30.10,10.0,ENE,3.5,-,N/A,,Clear,60,2013-06-18 15:10:00
9:30 AM,59.0,55.4,88,30.10,10.0,East,4.6,-,N/A,,Clear,90,2013-06-18 15:30:00
9:50 AM,62.6,57.2,82,30.09,10.0,NE,4.6,-,N/A,,Clear,40,2013-06-18 15:50:00
10:10 AM,64.4,59.0,83,30.08,10.0,East,3.5,-,N/A,,Clear,90,2013-06-18 16:10:00
10:30 AM,66.2,62.6,88,30.07,10.0,Calm,Calm,-,N/A,,Clear,0,2013-06-18 16:30:00
10:50 AM,66.2,62.6,88,30.06,10.0,Calm,Calm,-,N/A,,Clear,0,2013-06-18 16:50:00
11:10 AM,71.6,66.2,83,30.06,10.0,Calm,Calm,-,N/A,,Clear,0,2013-06-18 17:10:00
11:30 AM,73.4,68.0,83,30.05,10.0,SSE,4.6,-,N/A,,Clear,160,2013-06-18 17:30:00
11:50 AM,73.4,68.0,83,30.04,10.0,Calm,Calm,-,N/A,,Clear,0,2013-06-18 17:50:00
12:10 PM,75.2,71.6,89,30.03,10.0,WSW,9.2,-,N/A,,Clear,240,2013-06-18 18:10:00
12:30 PM,77.0,71.6,83,30.02,10.0,Calm,Calm,-,N/A,,Clear,0,2013-06-18 18:30:00
12:50 PM,77.0,73.4,89,30.01,10.0,SSW,8.1,19.6,N/A,,Clear,200,2013-06-18 18:50:00
1:10 PM,78.8,75.2,89,30.00,10.0,SSE,8.1,20.7,N/A,,Clear,160,2013-06-18 19:10:00
1:30 PM,78.8,73.4,83,30.00,10.0,SSW,8.1,20.7,N/A,,Clear,210,2013-06-18 19:30:00
1:50 PM,78.8,75.2,89,29.99,10.0,SSW,10.4,-,N/A,,Clear,210,2013-06-18 19:50:00
2:10 PM,80.6,75.2,84,29.98,10.0,WSW,13.8,23.0,N/A,,Clear,240,2013-06-18 20:10:00
2:30 PM,77.0,71.6,83,29.98,10.0,SW,17.3,25.3,N/A,,Clear,220,2013-06-18 20:30:00
2:50 PM,77.0,73.4,89,29.97,10.0,South,10.4,-,N/A,,Clear,180,2013-06-18 20:50:00
3:10 PM,78.8,73.4,83,29.95,10.0,WSW,19.6,28.8,N/A,,Partly Cloudy,240,2013-06-18 21:10:00
3:30 PM,80.6,75.2,84,29.96,10.0,SSW,9.2,19.6,N/A,,Partly Cloudy,200,2013-06-18 21:30:00
3:50 PM,77.0,73.4,89,29.95,10.0,SSE,3.5,17.3,N/A,,Clear,150,2013-06-18 21:50:00
4:10 PM,77.0,71.6,83,29.94,10.0,SW,3.5,-,N/A,,Clear,220,2013-06-18 22:10:00
4:30 PM,77.0,71.6,83,29.94,10.0,South,9.2,-,N/A,,Clear,190,2013-06-18 22:30:00
4:50 PM,77.0,71.6,83,29.93,10.0,SW,8.1,-,N/A,,Clear,230,2013-06-18 22:50:00
5:10 PM,75.2,69.8,83,29.95,10.0,WSW,9.2,27.6,N/A,,Scattered Clouds,240,2013-06-18 23:10:00
5:30 PM,73.4,68.0,83,29.94,10.0,Calm,Calm,-,N/A,,Partly Cloudy,0,2013-06-18 23:30:00
5:50 PM,71.6,66.2,83,29.95,10.0,SW,20.7,39.1,N/A,,Partly Cloudy,220,2013-06-18 23:50:00
6:10 PM,71.6,66.2,83,29.93,10.0,South,4.6,-,N/A,,Clear,170,2013-06-19 00:10:00
6:30 PM,71.6,66.2,83,29.92,10.0,SE,3.5,-,N/A,,Clear,140,2013-06-19 00:30:00
6:50 PM,71.6,66.2,83,29.93,10.0,SW,3.5,-,N/A,,Partly Cloudy,230,2013-06-19 00:50:00
7:10 PM,69.8,66.2,88,29.93,10.0,SW,10.4,-,N/A,,Scattered Clouds,220,2013-06-19 01:10:00
7:30 PM,69.8,64.4,83,29.92,10.0,South,13.8,26.5,N/A,,Partly Cloudy,190,2013-06-19 01:30:00
7:50 PM,69.8,66.2,88,29.90,10.0,SE,3.5,-,N/A,,Clear,140,2013-06-19 01:50:00
8:10 PM,68.0,64.4,88,29.89,10.0,Calm,Calm,-,N/A,,Clear,0,2013-06-19 02:10:00
8:30 PM,66.2,62.6,88,29.89,10.0,Calm,Calm,-,N/A,,Clear,0,2013-06-19 02:30:00
8:50 PM,62.6,59.0,88,29.89,10.0,NE,5.8,-,N/A,,Partly Cloudy,40,2013-06-19 02:50:00
9:10 PM,62.6,57.2,82,29.90,10.0,ENE,6.9,-,N/A,,Clear,70,2013-06-19 03:10:00
9:30 PM,60.8,57.2,88,29.90,10.0,ENE,9.2,-,N/A,,Clear,70,2013-06-19 03:30:00
9:50 PM,62.6,57.2,82,29.90,10.0,ENE,6.9,-,N/A,,Partly Cloudy,70,2013-06-19 03:50:00
10:10 PM,60.8,57.2,88,29.90,10.0,Calm,Calm,-,N/A,,Partly Cloudy,0,2013-06-19 04:10:00
10:30 PM,51.8,48.2,88,29.90,10.0,Calm,Calm,-,N/A,,Partly Cloudy,0,2013-06-19 04:30:00
10:50 PM,51.8,46.4,82,29.90,10.0,NNW,6.9,-,N/A,,Partly Cloudy,330,2013-06-19 04:50:00
11:10 PM,51.8,48.2,88,29.89,10.0,Calm,Calm,-,N/A,,Partly Cloudy,0,2013-06-19 05:10:00
11:30 PM,51.8,48.2,88,29.89,10.0,West,4.6,-,N/A,,Clear,260,2013-06-19 05:30:00
11:50 PM,53.6,48.2,82,29.88,10.0,Calm,Calm,-,N/A,,Clear,0,2013-06-19 05:50:00